Hourly Data Report for December 22, 2020

SHEARWATER RCS
NOVA SCOTIA
Current Station Operator: ECCC - MSC

44°37'47.000" N
63°30'48.000" W
24.00 m
8205092
71264
AAW

Download Data

Hourly Data (December 2020)
Hourly Data Report for December 22, 2020
TIME
LST
Temp Definition
°C
Dew Point Definition
°C
Rel Hum Definition
%
Precip. Amount Definition
mm

Wind Dir Definition
10's deg

Wind Spd Definition
km/h
Visibility Definition
km
Stn Press Definition
kPa
Hmdx Definition


Wind Chill Definition


Weather Definition


00:00 8.1 7.9 99 0.6   0   98.85     LegendNANA
01:00 7.2 7.0 99 1.0 33 2   98.73     LegendNANA
02:00 6.4 6.2 99 0.9 31 15   98.63     LegendNANA
03:00 4.9 4.6 98 0.0 32 16   98.59     LegendNANA
04:00 4.1 3.7 97 0.0 32 11   98.50     LegendNANA
05:00 3.1 2.4 95 0.3 29 13   98.56     LegendNANA
06:00 2.8 2.0 94 0.0 26 12   98.65     LegendNANA
07:00 3.3 2.5 95 0.0 27 12   98.71     LegendNANA
08:00 3.2 1.8 91 0.0 27 14   98.84     LegendNANA
09:00 2.7 0.9 88 0.0 28 17   99.00     LegendNANA
10:00 3.1 1.6 90 0.2 25 14   99.10     LegendNANA
11:00 3.0 1.3 89 0.0 25 19   99.20     LegendNANA
12:00 2.8 1.5 91 0.0 25 17   99.23     LegendNANA
13:00 3.4 1.7 88 0.0 26 15   99.27     LegendNANA
14:00 3.9 1.3 83 0.0 25 17   99.33     LegendNANA
15:00 4.7 0.7 75 0.0 26 20   99.39     LegendNANA
16:00 4.4 0.8 77 0.0 25 16   99.61     LegendNANA
17:00 3.2 0.0 80 0.0 25 16   99.70     LegendNANA
18:00 2.5 -0.4 81 0.0 25 11   99.74     LegendNANA
19:00 2.2 -0.3 83 0.0 25 14   99.84     LegendNANA
20:00 2.1 -0.4 84 0.0 26 9   99.95     LegendNANA
21:00 1.7 -0.5 85 0.0 26 11   100.02     LegendNANA
22:00 1.6 -0.2 88 0.0 25 12   100.09     LegendNANA
23:00 1.2 -0.2 90 0.0 26 7   100.11     LegendNANA

Notes on Data Quality.

Legend

  • E = Estimated
  • M = Missing
  • NA = Not Available*
  • [empty] = Indicates an unobserved value
Date modified: